| time (UTC) | temp F | wind direction | speed MPH | gust MPH | rain 1hr in | rain 24hr in | rain mn in | humidity % | barometer mb |
| 20260904003047 | 71 | 213 | 10.0 | 20.0 | 0.00 | 0.00 | 0.00 | 15 | 939.0 |
| 20260904001531 | 73 | 217 | 9.0 | 18.0 | 0.00 | 0.00 | 0.00 | 15 | 939.0 |
| 20260904000010 | 73 | 194 | 11.0 | 18.0 | 0.00 | 0.00 | 0.00 | 15 | 939.2 |
| 20260903234552 | 73 | 267 | 11.0 | 18.0 | 0.00 | 0.00 | 0.00 | 15 | 939.0 |
| 20260903233039 | 72 | 216 | 8.0 | 17.0 | 0.00 | 0.00 | 0.00 | 19 | 939.2 |
| 20260903231517 | 73 | 171 | 8.0 | 18.0 | 0.00 | 0.00 | 0.00 | 17 | 939.2 |
| 20260903230109 | 70 | 102 | 8.0 | 22.0 | 0.00 | 0.00 | 0.00 | 19 | 939.3 |
| 20260903230001 | 70 | 168 | 8.0 | 22.0 | 0.00 | 0.00 | 0.00 | 18 | 939.4 |
| 20260903224543 | 71 | 173 | 10.0 | 16.0 | 0.00 | 0.00 | 0.00 | 18 | 939.5 |
| 20260903223031 | 71 | 182 | 7.0 | 15.0 | 0.00 | 0.00 | 0.00 | 19 | 939.7 |
| 20260903221559 | 71 | 192 | 6.0 | 12.0 | 0.00 | 0.00 | 0.00 | 19 | 939.9 |
| 20260903220039 | 71 | 113 | 8.0 | 12.0 | 0.00 | 0.00 | 0.00 | 19 | 940.0 |
| 20260903214514 | 70 | 111 | 4.0 | 10.0 | 0.00 | 0.00 | 0.00 | 20 | 940.1 |
| 20260903213107 | 69 | 311 | 5.0 | 14.0 | 0.00 | 0.00 | 0.00 | 25 | 940.4 |
| 20260903211528 | 69 | 91 | 8.0 | 15.0 | 0.00 | 0.00 | 0.00 | 21 | 940.8 |
| 20260903210011 | 69 | 202 | 8.0 | 17.0 | 0.00 | 0.00 | 0.00 | 22 | 941.1 |
| 20260903204549 | 70 | 79 | 5.0 | 16.0 | 0.00 | 0.00 | 0.00 | 21 | 941.1 |
| 20260903203030 | 68 | 82 | 4.0 | 13.0 | 0.00 | 0.00 | 0.00 | 24 | 941.5 |
| 20260903201506 | 70 | 101 | 6.0 | 18.0 | 0.00 | 0.00 | 0.00 | 23 | 941.6 |
| 20260903200038 | 68 | 275 | 4.0 | 13.0 | 0.00 | 0.00 | 0.00 | 23 | 941.6 |
| 20260903194533 | 69 | 119 | 7.0 | 11.0 | 0.00 | 0.00 | 0.00 | 23 | 941.7 |
| 20260903193054 | 68 | 126 | 2.0 | 13.0 | 0.00 | 0.00 | 0.00 | 23 | 941.9 |
| 20260903191544 | 67 | 192 | 3.0 | 14.0 | 0.00 | 0.00 | 0.00 | 25 | 942.2 |
| 20260903190029 | 66 | 184 | 5.0 | 13.0 | 0.00 | 0.00 | 0.00 | 25 | 942.3 |
| 20260903184504 | 64 | 289 | 2.0 | 12.0 | 0.00 | 0.00 | 0.00 | 27 | 942.6 |
| 20260903183039 | 65 | 76 | 7.0 | 14.0 | 0.00 | 0.00 | 0.00 | 26 | 942.8 |
| 20260903181524 | 64 | 103 | 4.0 | 7.0 | 0.00 | 0.00 | 0.00 | 27 | 942.9 |
| 20260903180007 | 65 | 115 | 8.0 | 12.0 | 0.00 | 0.00 | 0.00 | 27 | 942.9 |
| 20260903174543 | 64 | 219 | 4.0 | 14.0 | 0.00 | 0.00 | 0.00 | 27 | 943.1 |
| 20260903173029 | 63 | 143 | 4.0 | 11.0 | 0.00 | 0.00 | 0.00 | 28 | 943.0 |
| 20260903171522 | 63 | 124 | 6.0 | 14.0 | 0.00 | 0.00 | 0.00 | 27 | 942.9 |
| 20260903170103 | 63 | 153 | 5.0 | 10.0 | 0.00 | 0.00 | 0.00 | 28 | 942.9 |
| 20260903164532 | 62 | 147 | 4.0 | 11.0 | 0.00 | 0.00 | 0.00 | 30 | 942.9 |
| 20260903163016 | 61 | 182 | 3.0 | 8.0 | 0.00 | 0.00 | 0.00 | 34 | 942.9 |
| 20260903161558 | 59 | 125 | 4.0 | 11.0 | 0.00 | 0.00 | 0.00 | 34 | 943.0 |
| 20260903160045 | 57 | 56 | 4.0 | 8.0 | 0.00 | 0.00 | 0.00 | 41 | 942.9 |
| 20260903154527 | 56 | 65 | 1.0 | 4.0 | 0.00 | 0.00 | 0.00 | 42 | 943.1 |
| 20260903153012 | 57 | 67 | 2.0 | 4.0 | 0.00 | 0.00 | 0.00 | 41 | 943.1 |
| 20260903151558 | 57 | 73 | 0.0 | 3.0 | 0.00 | 0.00 | 0.00 | 40 | 943.2 |
| 20260903150046 | 56 | 63 | 1.0 | 4.0 | 0.00 | 0.00 | 0.00 | 43 | 943.3 |
| 20260903144533 | 55 | 302 | 0.0 | 2.0 | 0.00 | 0.00 | 0.00 | 43 | 943.3 |
| 20260903143106 | 53 | 302 | 1.0 | 3.0 | 0.00 | 0.00 | 0.00 | 47 | 943.1 |
| 20260903143002 | 53 | 302 | 1.0 | 3.0 | 0.00 | 0.00 | 0.00 | 47 | 943.1 |
| 20260903141543 | 52 | 302 | 1.0 | 3.0 | 0.00 | 0.00 | 0.00 | 47 | 942.9 |
| 20260903140037 | 52 | 302 | 1.0 | 3.0 | 0.00 | 0.00 | 0.00 | 47 | 942.9 |
| 20260903134514 | 51 | 302 | 1.0 | 3.0 | 0.00 | 0.00 | 0.00 | 46 | 942.7 |
| 20260903133103 | 50 | 355 | 0.0 | 2.0 | 0.00 | 0.00 | 0.00 | 47 | 942.7 |
| 20260903133006 | 50 | 355 | 0.0 | 2.0 | 0.00 | 0.00 | 0.00 | 47 | 942.7 |
| 20260903131603 | 49 | 355 | 1.0 | 2.0 | 0.00 | 0.00 | 0.00 | 49 | 942.6 |
| 20260903130028 | 49 | 355 | 1.0 | 4.0 | 0.00 | 0.00 | 0.00 | 48 | 942.4 |
| 20260903124506 | 50 | 273 | 4.0 | 8.0 | 0.00 | 0.00 | 0.00 | 46 | 942.3 |
| 20260903123057 | 51 | 263 | 6.0 | 9.0 | 0.00 | 0.00 | 0.00 | 45 | 942.3 |
| 20260903121550 | 52 | 276 | 6.0 | 11.0 | 0.00 | 0.00 | 0.00 | 42 | 942.2 |
| 20260903120011 | 52 | 261 | 8.0 | 14.0 | 0.00 | 0.00 | 0.00 | 40 | 942.0 |
| 20260903114551 | 53 | 272 | 8.0 | 16.0 | 0.00 | 0.00 | 0.00 | 39 | 941.9 |
| 20260903113028 | 53 | 271 | 9.0 | 14.0 | 0.00 | 0.00 | 0.00 | 38 | 942.0 |
| 20260903111514 | 53 | 248 | 8.0 | 13.0 | 0.00 | 0.00 | 0.00 | 37 | 941.9 |
| 20260903110051 | 53 | 252 | 6.0 | 11.0 | 0.00 | 0.00 | 0.00 | 36 | 941.9 |
| 20260903104552 | 54 | 252 | 7.0 | 14.0 | 0.00 | 0.00 | 0.00 | 34 | 941.8 |
| 20260903103026 | 54 | 237 | 6.0 | 13.0 | 0.00 | 0.00 | 0.00 | 34 | 941.7 |
| 20260903101507 | 53 | 246 | 6.0 | 9.0 | 0.00 | 0.00 | 0.00 | 35 | 941.5 |
| 20260903100053 | 53 | 254 | 2.0 | 5.0 | 0.00 | 0.00 | 0.00 | 35 | 941.5 |
| 20260903094534 | 54 | 202 | 3.0 | 6.0 | 0.00 | 0.00 | 0.00 | 33 | 941.4 |
| 20260903093030 | 55 | 198 | 3.0 | 5.0 | 0.00 | 0.00 | 0.00 | 32 | 941.4 |
| 20260903091506 | 55 | 196 | 2.0 | 4.0 | 0.00 | 0.00 | 0.00 | 31 | 941.3 |
| 20260903090053 | 54 | 114 | 0.0 | 3.0 | 0.00 | 0.00 | 0.00 | 31 | 941.2 |
| 20260903084538 | 54 | 114 | 0.0 | 4.0 | 0.00 | 0.00 | 0.00 | 31 | 941.3 |
| 20260903083025 | 53 | 114 | 0.0 | 2.0 | 0.00 | 0.00 | 0.00 | 33 | 941.4 |
| 20260903081519 | 54 | 114 | 1.0 | 4.0 | 0.00 | 0.00 | 0.00 | 32 | 941.4 |
| 20260903080054 | 54 | 111 | 1.0 | 6.0 | 0.00 | 0.00 | 0.00 | 33 | 941.5 |
| 20260903074542 | 54 | 223 | 0.0 | 3.0 | 0.00 | 0.00 | 0.00 | 32 | 941.3 |
| 20260903073024 | 53 | 101 | 2.0 | 6.0 | 0.00 | 0.00 | 0.00 | 34 | 941.0 |
| 20260903071506 | 52 | 67 | 3.0 | 4.0 | 0.00 | 0.00 | 0.00 | 37 | 940.7 |
| 20260903070046 | 53 | 51 | 1.0 | 5.0 | 0.00 | 0.00 | 0.00 | 34 | 940.8 |
| 20260903064528 | 54 | 59 | 3.0 | 4.0 | 0.00 | 0.00 | 0.00 | 34 | 941.1 |
| 20260903063017 | 54 | 45 | 3.0 | 5.0 | 0.00 | 0.00 | 0.00 | 35 | 941.0 |
| 20260903061555 | 55 | 218 | 0.0 | 1.0 | 0.00 | 0.00 | 0.00 | 30 | 941.0 |
| 20260903060032 | 56 | 287 | 4.0 | 8.0 | 0.00 | 0.00 | 0.00 | 28 | 940.9 |
| 20260903054507 | 55 | 298 | 3.0 | 10.0 | 0.00 | 0.00 | 0.00 | 28 | 941.0 |
| 20260903053058 | 55 | 268 | 3.0 | 8.0 | 0.00 | 0.00 | 0.00 | 31 | 941.7 |
| 20260903051533 | 55 | 258 | 3.0 | 7.0 | 0.00 | 0.00 | 0.00 | 29 | 941.3 |
| 20260903050019 | 56 | 257 | 4.0 | 10.0 | 0.00 | 0.00 | 0.00 | 27 | 941.4 |
| 20260903044559 | 56 | 297 | 3.0 | 8.0 | 0.00 | 0.00 | 0.00 | 29 | 941.2 |
| 20260903044502 | 56 | 293 | 4.0 | 8.0 | 0.00 | 0.00 | 0.00 | 29 | 941.3 |
| 20260903043044 | 56 | 270 | 5.0 | 11.0 | 0.00 | 0.00 | 0.00 | 28 | 941.5 |
| 20260903041524 | 56 | 280 | 1.0 | 8.0 | 0.00 | 0.00 | 0.00 | 29 | 941.3 |
| 20260903040014 | 57 | 300 | 9.0 | 13.0 | 0.00 | 0.00 | 0.00 | 28 | 941.5 |
| 20260903034557 | 56 | 277 | 6.0 | 10.0 | 0.00 | 0.00 | 0.00 | 29 | 941.3 |
| 20260903034502 | 56 | 277 | 5.0 | 10.0 | 0.00 | 0.00 | 0.00 | 29 | 941.3 |
| 20260903033044 | 56 | 272 | 6.0 | 9.0 | 0.00 | 0.00 | 0.00 | 28 | 941.4 |
| 20260903031533 | 57 | 282 | 5.0 | 8.0 | 0.00 | 0.00 | 0.00 | 29 | 941.4 |
| 20260903030009 | 57 | 261 | 4.0 | 11.0 | 0.00 | 0.00 | 0.00 | 29 | 941.0 |
| 20260903024547 | 57 | 283 | 6.0 | 11.0 | 0.00 | 0.00 | 0.00 | 29 | 940.9 |
| 20260903023033 | 58 | 278 | 12.0 | 18.0 | 0.00 | 0.00 | 0.00 | 27 | 940.7 |
| 20260903021513 | 58 | 289 | 12.0 | 17.0 | 0.00 | 0.00 | 0.00 | 27 | 940.2 |
| 20260903020058 | 59 | 271 | 12.0 | 20.0 | 0.00 | 0.00 | 0.00 | 26 | 940.1 |
| 20260903020003 | 59 | 268 | 13.0 | 20.0 | 0.00 | 0.00 | 0.00 | 26 | 940.1 |
| 20260903014608 | 60 | 256 | 14.0 | 20.0 | 0.00 | 0.00 | 0.00 | 27 | 940.3 |
| 20260903013028 | 60 | 275 | 9.0 | 16.0 | 0.00 | 0.00 | 0.00 | 25 | 940.3 |
| 20260903011515 | 61 | 286 | 13.0 | 17.0 | 0.00 | 0.00 | 0.00 | 25 | 940.5 |
| 20260903010051 | 61 | 261 | 9.0 | 12.0 | 0.00 | 0.00 | 0.00 | 25 | 940.5 |
| 20260903004538 | 62 | 254 | 9.0 | 16.0 | 0.00 | 0.00 | 0.00 | 25 | 940.6 |